Location: Zerbst
(51.9650°N, 12.0766°E)
Time: 11:45:58
(UTC+02:00)

ISS - Pass Details

Date: 15 May 2017
Orbit: 401 x 407 km, 51.6° (Epoch: 25 September)

Event Time Altitude Azimuth Distance (km) Brightness Sun altitude
Exits shadow 03:21:38 26° 218° (SW) 847 -2.8 -13.4°
Maximum altitude 03:23:07 47° 158° (SSE) 560 -3.4 -13.3°
Drops below altitude 10° 03:26:20 10° 84° (E) 1,483 -0.4 -13.0°
Sets 03:28:28 0° 78° (ENE) 2,344 0.8 -12.8°
